Find Starlink 30967

NORAD ID: 58416 Int'l Des: 2023-180 Owner: SPXS Country: US Constellation: starlink operational
LEOCIRCULAR

Current View

Loading 3D Globe...

About Starlink 30967

Starlink 30967 (NORAD 58416) is a starlink constellation satellite (v2 mini) launched Nov 22, 2023 by SPXS of US. It operates in LEO, CIRCULAR orbit with a mass of 730.00 kg.

About Starlink 30967

Description loading...

Upcoming Passes

Passes for default location (London). Set your location on the main map for personalized predictions.

Altitude History

Loading altitude history...

Two-Line Element Set

1 58416U 23180Q 26175.25473850 -.00000997 00000-0 -26708-4 0 9997
2 58416 43.0031 170.7247 0002178 273.3529 86.7074 15.27567919143927
Epoch: Jun 24, 2026 • Age: 21 hours

Current Status

Altitude 485.6 km
Velocity 7.63 km/s
Sub-Earth Point 34.72°N, 101.15°W
Launch Date Nov 22, 2023
Age 2.5 years
Type internet

Technical Details

Classification Payload
Mass 730.00 kg
Dry Mass 700.00 kg
Total Mass 730.00 kg
Length 0.30 m
Diameter 4.10 m
Span 29.00 m
Shape Box + pan
Manufacturer SPXS
Bus Type Starlink V2M
Phase Status In Orbit
Owner/State SPXS/US

Most Searched